Location: Berlin
(52.5170°N, 13.3889°E)
Time: 13:27:28
(UTC+02:00)

LES 1 - Visible Passes

Search period start: 20 April 2024 00:00
Search period end: 30 April 2024 00:00
Orbit: 2781 x 2807 km, 32.1° (Epoch: 19 April)

Date Brightness Start Highest point End Pass type
(mag) Time Alt. Az. Time Alt. Az. Time Alt. Az.
20 Apr 10.6 01:10:25 10° WSW 01:27:41 31° SSE 01:37:31 10° SE visible
20 Apr 10.9 03:53:24 18° SW 03:59:13 23° SSW 04:10:14 10° SSE visible
20 Apr 10.6 22:52:33 10° SW 23:05:48 33° SSE 23:13:06 23° SE visible
21 Apr 10.6 01:28:05 10° WSW 01:45:00 30° S 01:54:48 10° SE visible
21 Apr 11.0 04:10:44 15° WSW 04:16:30 19° SSW 04:26:17 10° S visible
21 Apr 11.0 20:37:22 10° SSW 20:48:04 22° SSE 20:58:45 10° ESE visible
21 Apr 10.6 23:09:47 10° SW 23:23:16 34° S 23:30:05 25° SE visible
22 Apr 10.7 01:45:51 10° WSW 02:02:40 28° S 02:11:55 10° SE visible
22 Apr 11.1 04:28:27 13° WSW 04:33:45 16° SW 04:41:43 10° S visible
22 Apr 10.9 20:53:43 10° SSW 21:05:23 25° SSE 21:17:02 10° ESE visible
22 Apr 10.5 23:27:09 10° SW 23:40:45 35° S 23:46:47 28° SE visible
23 Apr 10.8 02:03:43 10° WSW 02:20:36 26° S 02:28:53 10° SSE visible
23 Apr 11.2 04:46:24 10° WSW 04:50:56 12° SW 04:55:50 10° SSW visible
23 Apr 10.8 21:10:23 10° SSW 21:22:44 28° SSE 21:35:07 10° ESE visible
23 Apr 10.5 23:44:37 10° WSW 23:58:14 35° S 00:03:17 30° SSE visible
24 Apr 10.9 02:21:45 10° WSW 02:38:41 22° S 02:45:36 10° SSE visible
24 Apr 10.8 21:27:17 10° SW 21:40:09 31° SSE 21:53:02 10° ESE visible
25 Apr 10.5 00:02:12 10° WSW 00:15:43 35° S 00:19:42 31° SSE visible
25 Apr 11.1 02:39:58 10° WSW 02:56:47 18° S 03:02:04 10° SSE visible
25 Apr 10.7 21:44:21 10° SW 21:57:35 33° SSE 22:10:25 11° ESE visible
26 Apr 10.5 00:19:51 10° WSW 00:33:11 33° S 00:36:03 31° S visible
26 Apr 11.2 02:58:28 10° WSW 03:14:54 15° S 03:18:08 10° S visible
26 Apr 10.7 22:01:36 10° SW 22:15:03 34° S 22:26:45 14° ESE visible
27 Apr 10.6 00:37:37 10° WSW 00:50:38 31° SSW 00:52:23 31° S visible
27 Apr 11.3 03:17:28 10° WSW 03:32:58 11° S 03:33:37 10° S visible
27 Apr 10.6 22:18:57 10° SW 22:32:31 35° S 22:43:03 17° SE visible
28 Apr 10.7 00:55:29 10° WSW 01:08:03 29° SSW 01:08:41 29° SSW visible
28 Apr11.503:51:00S03:51:00S03:34:19WSWvisible
28 Apr 10.6 22:36:25 10° WSW 22:50:00 35° S 22:59:20 20° SE visible
29 Apr 10.8 01:13:30 10° WSW 01:24:58 26° SSW 01:24:58 26° SSW visible
29 Apr 10.6 22:53:59 10° WSW 23:07:29 35° S 23:15:38 23° SE visible
